K4ZZR Weather Reports


time (UTC)temp
C
wind
direction
speed
KPH
gust
KPH
rain 1hr
cm
rain 24hr
cm
rain mn
cm
humidity
%
barometer
mb
20260904141340 30 200 6.4 9.7 0.00 0.00 0.00 85 1016.2
20260904140837 31 249 4.8 11.3 0.00 0.00 0.00 85 1016.1
20260904140331 31 211 4.8 11.3 0.00 0.00 0.00 85 1016.0
20260904135830 31 221 6.4 8.0 0.00 0.00 0.00 85 1015.9
20260904135326 30 204 3.2 11.3 0.00 0.00 0.00 86 1016.1
20260904134822 30 223 6.4 11.3 0.00 0.00 0.00 85 1016.0
20260904134322 30 255 3.2 8.0 0.00 0.00 0.00 86 1015.8
20260904133816 30 207 4.8 14.5 0.00 0.00 0.00 87 1015.9
20260904133312 30 283 0.0 9.7 0.00 0.00 0.00 88 1015.9
20260904132812 30 240 6.4 9.7 0.00 0.00 0.00 87 1015.7
20260904132307 30 204 3.2 9.7 0.00 0.00 0.00 88 1015.8
20260904131806 29 215 6.4 11.3 0.00 0.00 0.00 89 1015.7
20260904131302 29 258 4.8 11.3 0.00 0.00 0.00 89 1015.9
20260904130802 29 219 6.4 11.3 0.00 0.00 0.00 89 1015.7
20260904130302 29 234 6.4 12.9 0.00 0.00 0.00 90 1015.6
20260904125757 29 206 3.2 11.3 0.00 0.00 0.00 89 1015.7
20260904125253 28 252 3.2 11.3 0.00 0.00 0.00 90 1015.6
20260904124747 29 239 4.8 11.3 0.00 0.00 0.00 89 1015.4
20260904124244 29 201 4.8 4.8 0.00 0.00 0.00 89 1015.6
20260904123744 28 210 1.6 4.8 0.00 0.00 0.00 91 1015.7
20260904123239 28 235 3.2 8.0 0.00 0.00 0.00 91 1015.6
20260904122734 28 175 0.0 6.4 0.00 0.00 0.00 92 1015.4
20260904122228 28 234 1.6 8.0 0.00 0.00 0.00 93 1015.5
20260904121724 27 219 0.0 6.4 0.00 0.00 0.00 94 1015.4
20260904121219 27 236 3.2 6.4 0.00 0.00 0.00 95 1015.6
20260904120716 27 228 0.0 4.8 0.00 0.00 0.00 96 1015.3
20260904120211 27 222 3.2 4.8 0.00 0.00 0.00 97 1015.4
20260904115706 26 242 3.2 4.8 0.00 0.00 0.00 98 1014.9
20260904115201 26 226 3.2 3.2 0.00 0.00 0.00 99 1015.3
20260904114701 26 269 0.0 3.2 0.00 0.00 0.00 99 1015.2
20260904114155 26 194 0.0 3.2 0.00 0.00 0.00 99 1015.1
20260904113650 25 232 1.6 4.8 0.00 0.00 0.00 99 1014.9
20260904113149 25 230 3.2 4.8 0.00 0.00 0.00 99 1015.0
20260904112645 25 235 1.6 3.2 0.00 0.00 0.00 99 1015.0
20260904112140 25 228 1.6 4.8 0.00 0.00 0.00 99 1014.7
20260904111636 25 225 1.6 3.2 0.00 0.00 0.00 99 1014.9
20260904111131 25 195 0.0 1.6 0.00 0.00 0.00 99 1014.8
20260904110626 25 218 0.0 1.6 0.00 0.00 0.00 99 1014.9
20260904110121 25 246 0.0 1.6 0.00 0.00 0.00 99 1014.8
20260904105620 25 254 0.0 3.2 0.00 0.00 0.00 99 1014.7
20260904105115 25 256 1.6 3.2 0.00 0.00 0.00 99 1014.6
20260904104611 25 224 0.0 3.2 0.00 0.00 0.00 99 1014.5
20260904104107 25 275 3.2 3.2 0.00 0.00 0.00 99 1014.6
20260904103602 25 333 0.0 1.6 0.00 0.00 0.00 99 1014.4
20260904103058 25 252 0.0 1.6 0.00 0.00 0.00 99 1014.5
20260904102554 25 297 0.0 0.0 0.00 0.00 0.00 99 1014.4
20260904102049 25 291 1.6 3.2 0.00 0.00 0.00 99 1014.4
20260904101546 25 308 3.2 3.2 0.00 0.00 0.00 99 1014.5
20260904101041 25 293 1.6 3.2 0.00 0.00 0.00 99 1014.2
20260904100537 25 280 1.6 3.2 0.00 0.00 0.00 99 1014.4
20260904100032 25 269 3.2 3.2 0.00 0.00 0.00 99 1014.2
20260904095526 25 224 0.0 1.6 0.00 0.00 0.00 99 1014.2
20260904095021 25 129 0.0 0.0 0.00 0.00 0.00 99 1014.1
20260904094516 25 129 0.0 1.6 0.00 0.00 0.00 99 1014.1
20260904094011 25 15 0.0 1.6 0.00 0.00 0.00 99 1014.2
20260904093508 25 187 0.0 0.0 0.00 0.00 0.00 99 1014.2
20260904093003 25 185 0.0 1.6 0.00 0.00 0.00 99 1014.2
20260904092459 25 224 0.0 3.2 0.00 0.00 0.00 99 1014.1
20260904091955 25 62 0.0 0.0 0.00 0.00 0.00 99 1014.1
20260904091451 25 37 0.0 0.0 0.00 0.00 0.00 99 1014.1
20260904090950 25 180 0.0 3.2 0.00 0.00 0.00 99 1013.9
20260904090446 25 205 0.0 1.6 0.00 0.00 0.00 99 1013.9
20260904085941 26 201 0.0 3.2 0.00 0.00 0.00 99 1013.7
20260904085437 26 233 1.6 3.2 0.00 0.00 0.00 99 1013.8
20260904084936 26 224 0.0 3.2 0.00 0.00 0.00 99 1013.8
20260904084433 26 220 3.2 4.8 0.00 0.00 0.00 99 1014.0
20260904083928 26 219 3.2 4.8 0.00 0.00 0.00 99 1013.7
20260904083425 26 249 3.2 3.2 0.00 0.00 0.00 99 1013.8
20260904082920 26 227 1.6 4.8 0.00 0.00 0.00 99 1013.7
20260904082420 26 239 1.6 3.2 0.00 0.00 0.00 99 1013.9
20260904081915 26 232 3.2 4.8 0.00 0.00 0.00 99 1013.7
20260904081410 26 229 0.0 3.2 0.00 0.00 0.00 99 1013.7
20260904080906 26 221 1.6 4.8 0.00 0.00 0.00 99 1013.7
20260904080401 26 217 0.0 3.2 0.00 0.00 0.00 99 1013.7
20260904075857 26 245 0.0 3.2 0.00 0.00 0.00 99 1013.8
20260904075353 26 164 0.0 1.6 0.00 0.00 0.00 98 1013.9
20260904074851 26 252 1.6 3.2 0.00 0.00 0.00 98 1013.5
20260904074346 26 219 1.6 3.2 0.00 0.00 0.00 98 1013.6
20260904073842 26 239 1.6 3.2 0.00 0.00 0.00 97 1013.7
20260904073338 26 240 3.2 4.8 0.00 0.00 0.00 97 1013.6
20260904072833 26 260 1.6 4.8 0.00 0.00 0.00 97 1013.7
20260904072333 26 266 1.6 4.8 0.00 0.00 0.00 97 1013.8
20260904071828 26 245 1.6 3.2 0.00 0.00 0.00 98 1013.6
20260904071324 26 250 0.0 3.2 0.00 0.00 0.00 97 1013.5
20260904070819 26 255 0.0 3.2 0.00 0.00 0.00 97 1013.7
20260904070317 26 223 0.0 3.2 0.00 0.00 0.00 96 1013.5
20260904065812 26 255 0.0 3.2 0.00 0.00 0.00 96 1013.7
20260904065309 27 170 1.6 3.2 0.00 0.00 0.00 96 1013.6
20260904064803 26 169 4.8 4.8 0.00 0.00 0.00 96 1013.6
20260904064259 26 139 0.0 3.2 0.00 0.00 0.00 96 1013.8
20260904063755 26 160 3.2 3.2 0.00 0.00 0.00 96 1014.0
20260904063251 26 218 0.0 3.2 0.00 0.00 0.00 96 1013.8
20260904062746 26 161 1.6 3.2 0.00 0.00 0.00 96 1013.9
20260904062242 26 195 0.0 3.2 0.00 0.00 0.00 96 1013.9
20260904061737 26 217 1.6 4.8 0.00 0.00 0.00 96 1014.0
20260904061233 26 201 1.6 3.2 0.00 0.00 0.00 96 1014.0
20260904060730 26 224 0.0 3.2 0.00 0.00 0.00 95 1014.2
20260904060225 27 210 0.0 1.6 0.00 0.00 0.00 95 1014.1
20260904055720 27 210 1.6 3.2 0.00 0.00 0.00 95 1014.3
20260904055215 27 208 0.0 3.2 0.00 0.00 0.00 94 1014.2
20260904054711 27 201 3.2 6.4 0.00 0.00 0.00 94 1014.4
20260904054207 27 199 1.6 6.4 0.00 0.00 0.00 94 1014.6
20260904053701 27 190 1.6 9.7 0.00 0.00 0.00 93 1014.7
20260904053156 27 175 3.2 8.0 0.00 0.00 0.00 93 1014.5
20260904052653 27 168 4.8 8.0 0.00 0.00 0.00 93 1014.3
20260904052148 27 152 1.6 6.4 0.00 0.00 0.00 93 1014.4
20260904051644 27 173 4.8 8.0 0.00 0.00 0.00 94 1014.4
20260904051139 27 246 0.0 3.2 0.00 0.00 0.00 93 1014.5
20260904050635 27 168 0.0 1.6 0.00 0.00 0.00 93 1014.5
20260904050131 27 147 0.0 3.2 0.00 0.00 0.00 92 1014.4
20260904045631 27 172 3.2 3.2 0.00 0.00 0.00 91 1014.7
20260904045125 27 242 1.6 3.2 0.00 0.00 0.00 91 1014.5
20260904044621 27 136 1.6 8.0 0.00 0.00 0.00 90 1014.5
20260904044117 27 146 4.8 6.4 0.00 0.00 0.00 91 1014.4
20260904043614 27 132 4.8 6.4 0.00 0.00 0.00 93 1014.6
20260904043109 27 149 3.2 6.4 0.00 0.00 0.00 94 1014.8
20260904042605 27 140 4.8 6.4 0.00 0.00 0.00 93 1014.6
20260904042100 27 94 4.8 6.4 0.00 0.00 0.00 93 1014.4
20260904041556 27 160 0.0 8.0 0.00 0.00 0.00 94 1014.6
20260904041052 27 127 1.6 9.7 0.00 0.00 0.00 94 1014.9
20260904040552 27 162 6.4 9.7 0.00 0.00 0.00 95 1014.5
20260904040049 27 128 0.0 9.7 0.00 1.42 1.42 95 1014.7
20260904035543 27 106 8.0 20.9 0.00 1.42 1.42 94 1014.9
20260904035043 27 125 3.2 9.7 0.00 1.42 1.42 94 1014.8
20260904034538 27 140 4.8 14.5 0.00 1.42 1.42 95 1015.0
20260904034033 26 114 8.0 14.5 0.00 1.42 1.42 96 1015.3
20260904033529 26 149 4.8 19.3 0.00 1.42 1.42 98 1015.0
20260904033026 26 172 0.0 3.2 0.00 1.42 1.42 98 1014.7
20260904032521 26 54 1.6 3.2 0.00 1.42 1.42 98 1014.8
20260904032020 26 89 1.6 3.2 0.00 1.42 1.42 98 1015.0
20260904031515 26 74 0.0 1.6 0.00 1.42 1.42 98 1014.9
20260904031012 26 89 0.0 0.0 0.00 1.42 1.42 97 1014.7
20260904030507 26 89 0.0 0.0 0.00 1.42 1.42 98 1014.9
20260904030002 26 62 0.0 0.0 0.00 1.42 1.42 97 1014.9
20260904025458 26 50 0.0 1.6 0.00 1.42 1.42 97 1014.8
20260904024958 26 60 0.0 1.6 0.00 1.42 1.42 97 1014.9
20260904024453 26 104 0.0 3.2 0.00 1.42 1.42 97 1014.7
20260904023949 26 89 0.0 1.6 0.00 1.42 1.42 97 1014.8
20260904023445 26 142 0.0 1.6 0.00 1.42 1.42 97 1014.8
20260904022944 26 135 0.0 0.0 0.00 1.42 1.42 97 1015.0
20260904022441 26 187 0.0 3.2 0.00 1.42 1.42 97 1015.1
20260904021937 26 110 0.0 0.0 0.00 1.42 1.42 97 1015.0
20260904021433 26 149 0.0 3.2 0.00 1.42 1.42 97 1015.2
20260904020927 26 169 0.0 3.2 0.00 1.42 1.42 98 1015.1
20260904020422 26 202 0.0 1.6 0.00 1.42 1.42 97 1015.1
20260904015921 26 229 0.0 1.6 0.00 1.42 1.42 97 1015.2
20260904015417 26 239 0.0 1.6 0.00 1.42 1.42 97 1015.0
20260904014915 26 154 0.0 0.0 0.00 1.42 1.42 96 1015.1
20260904014410 26 195 0.0 1.6 0.00 1.42 1.42 96 1015.0
20260904013906 26 119 0.0 0.0 0.00 1.42 1.42 96 1015.0
20260904013401 26 103 0.0 3.2 0.00 1.42 1.42 95 1014.9
20260904012852 26 98 1.6 3.2 0.00 1.42 1.42 95 1014.8
20260904012352 26 162 0.0 3.2 0.00 1.42 1.42 95 1014.8
20260904011851 26 141 0.0 6.4 0.00 1.42 1.42 95 1014.8
20260904011346 26 143 3.2 6.4 0.00 1.42 1.42 95 1014.9
20260904010841 26 132 1.6 6.4 0.00 1.42 1.42 95 1014.7
20260904010338 26 128 3.2 6.4 0.00 1.42 1.42 95 1014.5
20260904005832 26 97 3.2 4.8 0.00 1.42 1.42 96 1014.5
20260904005328 26 100 3.2 6.4 0.00 1.42 1.42 97 1014.4
20260904004823 26 93 4.8 8.0 0.00 1.42 1.42 97 1014.3
20260904004320 26 108 3.2 4.8 0.00 1.42 1.42 97 1014.4
20260904003814 25 153 0.0 3.2 0.00 1.42 1.42 97 1014.4
20260904003311 26 89 0.0 4.8 0.00 1.42 1.42 97 1014.1
20260904002806 25 124 3.2 6.4 0.00 1.42 1.42 97 1014.1
20260904002306 25 106 3.2 6.4 0.00 1.42 1.42 97 1014.2
20260904001801 25 88 1.6 4.8 0.00 1.42 1.42 98 1014.0
20260904001256 25 230 0.0 1.6 0.00 1.42 1.42 98 1014.2
20260904000751 25 43 0.0 4.8 0.00 1.42 1.42 98 1014.2
20260904000245 25 89 0.0 4.8 0.00 1.42 1.42 98 1014.4
20260903235744 25 91 1.6 3.2 0.00 1.42 1.42 99 1014.5
20260903235242 25 104 0.0 6.4 0.00 1.42 1.42 98 1014.2
20260903234740 25 104 3.2 4.8 0.00 1.42 1.42 99 1014.4
20260903234237 25 187 0.0 0.0 0.00 1.42 1.42 98 1014.1
20260903233733 25 118 1.6 4.8 0.00 1.42 1.42 98 1013.9
20260903233229 25 155 1.6 4.8 0.00 1.42 1.42 98 1014.0
20260903232727 25 150 4.8 6.4 0.00 1.42 1.42 98 1013.9
20260903232224 25 212 0.0 3.2 0.00 1.42 1.42 98 1013.6
20260903231722 25 155 4.8 8.0 0.00 1.42 1.42 98 1013.8
20260903231218 25 72 1.6 6.4 0.00 1.42 1.42 98 1014.1
20260903230713 25 124 1.6 6.4 0.00 1.42 1.42 98 1014.1
20260903230208 25 147 4.8 6.4 0.00 1.42 1.42 98 1013.9
20260903225704 25 111 3.2 3.2 0.05 1.42 1.42 98 1014.1
20260903225201 25 103 3.2 3.2 0.13 1.42 1.42 98 1014.1
20260903224656 25 174 3.2 4.8 0.13 1.42 1.42 97 1014.2
20260903224152 25 96 4.8 6.4 0.05 1.40 1.40 97 1014.0
20260903223647 25 156 4.8 4.8 0.05 1.40 1.40 96 1014.1
20260903223145 25 170 3.2 3.2 0.13 1.40 1.40 96 1014.2
20260903222640 25 111 4.8 4.8 0.00 1.37 1.37 95 1014.0
20260903222139 25 138 4.8 8.0 0.00 1.37 1.37 95 1014.1
20260903221635 25 195 3.2 8.0 0.05 1.37 1.37 95 1014.0
20260903221133 25 168 4.8 8.0 0.13 1.37 1.37 93 1014.0
20260903220627 26 149 4.8 6.4 0.05 1.37 1.37 92 1014.0
20260903220127 26 129 0.0 4.8 0.00 1.35 1.35 90 1013.6
20260903215626 26 81 1.6 4.8 0.00 1.35 1.35 89 1013.8
20260903215120 26 176 3.2 3.2 0.00 1.35 1.35 89 1013.5
20260903214619 26 322 0.0 3.2 0.00 1.35 1.35 91 1013.5
20260903214115 25 101 1.6 4.8 0.00 1.35 1.35 90 1013.5
20260903213610 25 209 0.0 6.4 0.00 1.35 1.35 91 1013.9
20260903213105 25 170 11.3 14.5 0.00 1.35 1.35 91 1013.7
20260903212601 26 152 12.9 20.9 0.00 1.35 1.35 89 1013.8
20260903212056 27 209 6.4 12.9 0.00 1.35 1.35 88 1013.5
20260903211551 27 210 4.8 11.3 0.00 1.35 1.35 86 1013.1
20260903211048 27 273 1.6 4.8 0.00 1.35 1.35 86 1012.8
20260903210542 27 171 3.2 12.9 0.00 1.35 1.35 86 1012.9
20260903210039 27 210 8.0 24.1 0.00 1.35 1.35 85 1013.6
20260903205538 28 201 14.5 20.9 0.00 1.35 1.35 84 1013.5
20260903205038 28 155 16.1 19.3 0.00 1.35 1.35 89 1013.2
20260903204534 28 157 4.8 17.7 0.00 1.35 1.35 89 1013.1
20260903204029 29 121 6.4 12.9 0.00 1.35 1.35 88 1013.3
20260903203525 29 146 6.4 20.9 0.00 1.35 1.35 88 1012.9
20260903203024 30 111 4.8 14.5 0.00 1.35 1.35 87 1013.2
20260903202520 30 105 3.2 11.3 0.00 1.35 1.35 86 1013.0
20260903202015 30 101 6.4 11.3 0.00 1.35 1.35 85 1013.0
20260903201510 30 82 4.8 11.3 0.00 1.35 1.35 85 1013.1
20260903201009 30 116 4.8 9.7 0.00 1.35 1.35 85 1013.2
20260903200504 30 160 6.4 9.7 0.00 1.35 1.35 86 1013.3
20260903195959 30 149 8.0 11.3 0.00 1.35 1.35 85 1013.4
20260903195455 30 123 4.8 9.7 0.00 1.35 1.35 86 1013.5
20260903194950 29 109 3.2 16.1 0.00 1.35 1.35 87 1013.7
20260903194445 29 145 8.0 12.9 0.00 1.35 1.35 87 1013.4
20260903193940 29 115 14.5 22.5 0.00 1.35 1.35 87 1013.1
20260903193437 29 121 8.0 11.3 0.00 1.35 1.35 86 1012.8
20260903192931 29 110 3.2 12.9 0.00 1.35 1.35 87 1013.2
20260903192429 29 118 3.2 11.3 0.00 1.35 1.35 87 1013.3
20260903191924 29 112 3.2 12.9 0.00 1.35 1.35 88 1013.3
20260903191420 30 134 4.8 16.1 0.00 1.35 1.35 87 1013.3
20260903190919 29 113 8.0 20.9 0.00 1.35 1.35 86 1013.4
20260903190413 30 144 6.4 16.1 0.00 1.35 1.35 86 1013.5
20260903185913 30 127 8.0 16.1 0.00 1.35 1.35 87 1013.7
20260903185408 30 124 4.8 17.7 0.00 1.35 1.35 86 1013.9
20260903184904 30 73 3.2 9.7 0.00 1.35 1.35 87 1013.8
20260903184401 30 120 11.3 12.9 0.00 1.35 1.35 88 1014.1
20260903183900 30 72 9.7 17.7 0.00 1.35 1.35 89 1014.0
20260903183355 30 88 4.8 14.5 0.00 1.35 1.35 90 1014.0
20260903182855 30 87 4.8 8.0 0.00 1.35 1.35 89 1013.8
20260903182354 30 113 3.2 14.5 0.00 1.35 1.35 89 1013.9
20260903181849 30 93 8.0 9.7 0.00 1.35 1.35 89 1013.8
20260903181343 29 102 8.0 14.5 0.00 1.35 1.35 89 1013.8
20260903180837 30 104 3.2 12.9 0.00 1.35 1.35 89 1014.0
20260903180332 30 56 3.2 17.7 0.00 1.35 1.35 88 1014.1
20260903175831 30 136 3.2 11.3 0.00 1.35 1.35 89 1014.0
20260903175331 29 152 11.3 14.5 0.00 1.35 1.35 89 1014.1
20260903174825 29 137 6.4 16.1 0.00 1.35 1.35 90 1014.0
20260903174321 29 111 8.0 22.5 0.00 1.35 1.35 90 1014.3
20260903173814 29 128 9.7 16.1 0.00 1.35 1.35 89 1014.2
20260903173310 30 128 3.2 19.3 0.00 1.35 1.35 89 1014.4
20260903172806 30 101 9.7 12.9 0.00 1.35 1.35 87 1014.5
20260903172301 30 149 11.3 16.1 0.00 1.35 1.35 85 1014.5
20260903171756 30 83 1.6 11.3 0.00 1.35 1.35 86 1014.7
20260903171252 31 127 1.6 8.0 0.00 1.35 1.35 85 1014.6
20260903170750 30 135 3.2 8.0 0.00 1.35 1.35 85 1014.6
20260903170246 30 63 4.8 12.9 0.00 1.35 1.35 86 1014.7
20260903165744 30 163 12.9 12.9 0.00 1.35 1.35 86 1014.5
20260903165239 30 144 1.6 11.3 0.00 1.35 1.35 87 1014.9
20260903164733 29 120 1.6 12.9 0.00 1.35 1.35 90 1014.8
20260903164230 29 122 4.8 12.9 0.00 1.35 1.35 89 1015.0
20260903163728 30 104 4.8 8.0 0.00 1.35 1.35 88 1015.1
20260903163225 30 97 6.4 8.0 0.00 1.35 1.35 88 1015.1
20260903162721 29 71 3.2 12.9 0.00 1.35 1.35 89 1015.2
20260903162217 30 123 3.2 14.5 0.00 1.35 1.35 88 1015.2
20260903161713 30 101 3.2 12.9 0.00 1.35 1.35 87 1015.3
20260903161208 30 103 8.0 14.5 0.00 1.35 1.35 85 1015.1
20260903160704 31 130 1.6 8.0 0.00 1.35 1.35 85 1015.2
20260903160203 31 126 4.8 8.0 0.00 1.35 1.35 85 1015.0
20260903155702 31 99 0.0 6.4 0.00 1.35 1.35 85 1014.9
20260903155201 31 93 4.8 11.3 0.00 1.35 1.35 84 1015.1
20260903154657 30 157 1.6 9.7 0.00 1.35 1.35 86 1015.3
20260903154153 30 212 1.6 4.8 0.00 1.35 1.35 86 1015.2
20260903153649 31 207 1.6 4.8 0.00 1.35 1.35 85 1015.2
20260903153145 31 100 3.2 4.8 0.00 1.35 1.35 83 1014.9
20260903152640 30 68 0.0 6.4 0.00 1.35 1.35 83 1015.3
20260903152137 31 158 6.4 9.7 0.00 1.35 1.35 81 1015.1
20260903151636 31 145 6.4 14.5 0.00 1.35 1.35 82 1015.3
20260903151131 31 170 3.2 9.7 0.00 1.35 1.35 80 1015.3
20260903150631 31 123 3.2 12.9 0.00 1.35 1.35 81 1015.2
20260903150126 31 154 14.5 14.5 0.00 1.35 1.35 81 1015.2
20260903145626 31 158 6.4 11.3 0.00 1.35 1.35 82 1015.2
20260903145121 30 190 3.2 11.3 0.00 1.35 1.35 83 1015.2
20260903144620 30 189 4.8 11.3 0.00 1.35 1.35 85 1015.2
20260903144116 30 175 1.6 11.3 0.00 1.35 1.35 83 1015.2
20260903143612 30 158 4.8 9.7 0.00 1.35 1.35 86 1015.4
20260903143108 30 233 6.4 8.0 0.00 1.35 1.35 86 1015.1
20260903142603 30 196 1.6 8.0 0.00 1.35 1.35 87 1015.0
20260903142100 30 153 6.4 8.0 0.00 1.35 1.35 85 1015.0
20260903141555 30 217 4.8 11.3 0.00 1.35 1.35 85 1015.0